Location: Laupheim
(48.2265°N, 9.8829°E)
Time: 02:08:33
(UTC+01:00)

ISS - Pass Details

Date: 04 January 2018
Orbit: 401 x 406 km, 51.6° (Epoch: 17 January)

Event Time Altitude Azimuth Distance (km) Brightness Sun altitude
Exits shadow 05:23:22 20° 67° (ENE) 1,004 -1.2 -26.9°
Drops below altitude 10° 05:24:32 10° 68° (ENE) 1,468 -0.2 -26.7°
Sets 05:26:37 0° 68° (ENE) 2,332 1.0 -26.3°
